Location: Bothwell
(42.3833°S, 147.0000°E)
Time: 05:33:33
(UTC+10:00)

RS-44 - Visible Passes

Search period start: 25 September 2022 00:00
Search period end: 05 October 2022 01:00
Orbit: 1174 x 1511 km, 82.5° (Epoch: 24 September)

Date Brightness Start Highest point End Pass type
(mag) Time Alt. Az. Time Alt. Az. Time Alt. Az.
25 Sep ? 00:39:54 31° SW 00:39:54 31° SW 00:45:24 10° S visible
25 Sep ? 21:18:10 14° SE 21:18:10 14° SE 21:20:13 10° SE visible
25 Sep ? 23:10:44 42° SSE 23:10:44 42° SSE 23:16:12 10° S visible
26 Sep ? 01:03:18 23° SW 01:03:18 23° SW 01:08:39 10° SSW visible
26 Sep ? 21:41:32 22° SE 21:41:32 22° SE 21:45:24 10° SSE visible
26 Sep ? 23:34:06 45° S 23:34:06 45° S 23:40:03 10° S visible
27 Sep ? 01:26:41 16° SW 01:26:41 16° SW 01:31:22 10° SSW visible
27 Sep ? 22:04:54 31° SE 22:04:54 31° SE 22:09:56 10° SSE visible
27 Sep ? 23:57:28 40° SW 23:57:28 40° SW 00:03:43 10° S visible
28 Sep ? 20:35:41 10° ESE 20:35:41 10° ESE 20:35:53 10° ESE visible
28 Sep ? 22:28:15 43° SE 22:28:15 43° SE 22:34:08 10° SSE visible
29 Sep ? 00:20:49 31° SW 00:20:49 31° SW 00:27:11 10° S visible
29 Sep ? 20:59:01 17° ESE 20:59:01 17° ESE 21:02:37 10° SE visible
29 Sep ? 22:51:35 54° S 22:51:35 54° S 22:58:07 10° S visible
30 Sep ? 00:44:08 22° WSW 00:44:08 22° WSW 00:50:20 10° SSW visible
30 Sep ? 21:22:19 27° ESE 21:22:19 27° ESE 21:27:32 10° SSE visible
30 Sep ? 23:14:52 53° SSW 23:14:52 53° SSW 23:21:55 10° S visible
01 Oct ? 01:07:26 14° WSW 01:08:29 14° SW 01:12:46 10° SSW visible
01 Oct ? 21:45:35 40° SE 21:45:35 40° SE 21:51:57 10° SSE visible
01 Oct ? 23:38:09 42° SW 23:38:09 42° SW 23:45:32 10° S visible
02 Oct ? 21:16:18 13° ESE 21:16:18 13° ESE 21:19:06 10° SE visible
02 Oct ? 23:08:50 57° SE 23:08:50 57° SE 23:16:04 10° SSE visible
03 Oct ? 01:01:24 29° WSW 01:01:24 29° WSW 01:08:56 10° S visible
03 Oct ? 21:39:30 21° ESE 21:39:30 21° ESE 21:44:53 10° SSE visible
03 Oct ? 23:32:04 71° S 23:32:04 71° S 23:40:01 10° S visible
04 Oct ? 01:24:37 19° WSW 01:25:50 20° WSW 01:31:57 10° SSW visible
04 Oct ? 22:02:42 33° ESE 22:02:42 33° ESE 22:09:37 10° SSE visible
04 Oct ? 23:55:15 58° WSW 23:55:15 58° WSW 00:03:45 10° S visible
